Hourly Weather Celbowo

Today, 19 June, Saturday

Time Temperature Precipitation Wind Pressure Humidity
00:00 +20°C° 0 mm 4 mps 760 mmHg 79%
01:00 +20°C° 0 mm 4 mps 760 mmHg 78%
02:00 +20°C° 0 mm 4 mps 759 mmHg 80%
03:00 +20°C° 0 mm 4 mps 759 mmHg 82%
04:00 +19°C° 0 mm 4 mps 759 mmHg 84%
05:00 +21°C° 0 mm 4 mps 759 mmHg 77%
06:00 +23°C° 0 mm 5 mps 759 mmHg 70%
07:00 +26°C° 0 mm 5 mps 759 mmHg 62%
08:00 +28°C° 0 mm 5 mps 759 mmHg 57%
09:00 +29°C° 0 mm 5 mps 759 mmHg 51%
10:00 +32°C° 0 mm 5 mps 759 mmHg 46%
11:00 +32°C° 0 mm 5 mps 758 mmHg 44%
12:00 +33°C° 0 mm 5 mps 758 mmHg 42%
13:00 +34°C° 0 mm 6 mps 758 mmHg 40%
14:00 +33°C° 0 mm 6 mps 758 mmHg 42%
15:00 +33°C° 0 mm 6 mps 758 mmHg 43%
16:00 +33°C° 0 mm 6 mps 757 mmHg 45%
17:00 +30°C° 0 mm 6 mps 757 mmHg 51%
18:00 +29°C° 0 mm 6 mps 757 mmHg 57%
19:00 +28°C° 0 mm 5 mps 757 mmHg 63%
20:00 +27°C° 0 mm 5 mps 757 mmHg 65%
21:00 +25°C° 0 mm 5 mps 757 mmHg 67%
22:00 +23°C° 0 mm 4 mps 757 mmHg 68%
23:00 +23°C° 0 mm 4 mps 757 mmHg 71%

Tomorrow, 20 June, Sunday

Time Temperature Precipitation Wind Pressure Humidity
00:00 +22°C° 0 mm 4 mps 757 mmHg 74%
01:00 +21°C° 0 mm 4 mps 757 mmHg 77%
02:00 +21°C° 0 mm 4 mps 757 mmHg 81%
03:00 +21°C° 0 mm 4 mps 757 mmHg 85%
04:00 +20°C° 0 mm 4 mps 757 mmHg 89%
05:00 +22°C° 0 mm 4 mps 757 mmHg 82%
06:00 +25°C° 0 mm 4 mps 757 mmHg 76%
07:00 +27°C° 0 mm 5 mps 757 mmHg 69%
08:00 +28°C° 0 mm 5 mps 756 mmHg 64%
09:00 +29°C° 0 mm 6 mps 756 mmHg 59%
10:00 +30°C° 0 mm 6 mps 756 mmHg 54%
11:00 +32°C° 0 mm 6 mps 756 mmHg 52%
12:00 +32°C° 0 mm 6 mps 756 mmHg 49%
13:00 +33°C° 0 mm 6 mps 755 mmHg 46%
14:00 +32°C° 0 mm 6 mps 755 mmHg 46%
15:00 +32°C° 0 mm 7 mps 755 mmHg 46%
16:00 +32°C° 0 mm 7 mps 755 mmHg 46%
17:00 +30°C° 0 mm 6 mps 754 mmHg 51%
18:00 +29°C° 0 mm 6 mps 754 mmHg 55%
19:00 +28°C° 0 mm 6 mps 754 mmHg 60%
20:00 +26°C° 0 mm 5 mps 754 mmHg 65%
21:00 +23°C° 0 mm 4 mps 754 mmHg 71%
22:00 +22°C° 0 mm 4 mps 754 mmHg 77%
23:00 +22°C° 0 mm 4 mps 754 mmHg 77%

Day after tomorrow, 21 June, Monday

Time Temperature Precipitation Wind Pressure Humidity
00:00 +22°C° 0 mm 4 mps 754 mmHg 77%
01:00 +21°C° 0 mm 3 mps 754 mmHg 78%
02:00 +21°C° 0 mm 3 mps 754 mmHg 80%
03:00 +21°C° 0 mm 4 mps 754 mmHg 82%
04:00 +20°C° 0 mm 4 mps 753 mmHg 84%
05:00 +22°C° 0 mm 4 mps 753 mmHg 78%
06:00 +25°C° 0 mm 4 mps 753 mmHg 73%
07:00 +26°C° 0 mm 4 mps 753 mmHg 67%
08:00 +28°C° 0 mm 4 mps 753 mmHg 62%
09:00 +29°C° 0 mm 5 mps 753 mmHg 58%
10:00 +30°C° 0 mm 5 mps 753 mmHg 53%
11:00 +30°C° 0 mm 5 mps 753 mmHg 51%
12:00 +32°C° 0 mm 6 mps 753 mmHg 49%
13:00 +32°C° 0 mm 6 mps 753 mmHg 47%
14:00 +32°C° 0 mm 6 mps 753 mmHg 48%
15:00 +32°C° 0 mm 5 mps 752 mmHg 50%
16:00 +30°C° 0 mm 5 mps 752 mmHg 51%
17:00 +29°C° 0 mm 5 mps 752 mmHg 57%
18:00 +28°C° 0 mm 5 mps 752 mmHg 62%
19:00 +27°C° 0 mm 5 mps 752 mmHg 67%
20:00 +25°C° 0.3 mm 4 mps 752 mmHg 76%
21:00 +22°C° 0.3 mm 4 mps 753 mmHg 85%
22:00 +20°C° 0.3 mm 4 mps 753 mmHg 94%
23:00 +19°C° 0.2 mm 5 mps 753 mmHg 95%

22 June, Tuesday

Time Temperature Precipitation Wind Pressure Humidity
00:00 +16°C° 0.2 mm 5 mps 753 mmHg 95%
01:00 +15°C° 0.2 mm 5 mps 754 mmHg 96%
02:00 +15°C° 0 mm 5 mps 754 mmHg 96%
03:00 +15°C° 0 mm 5 mps 754 mmHg 95%
04:00 +14°C° 0 mm 5 mps 754 mmHg 95%
05:00 +15°C° 0.1 mm 5 mps 755 mmHg 92%
06:00 +16°C° 0.1 mm 5 mps 755 mmHg 88%
07:00 +17°C° 0.1 mm 5 mps 755 mmHg 84%
08:00 +20°C° 0 mm 5 mps 756 mmHg 76%
09:00 +21°C° 0 mm 4 mps 756 mmHg 68%
10:00 +23°C° 0 mm 4 mps 756 mmHg 59%
11:00 +23°C° 0 mm 4 mps 756 mmHg 58%
12:00 +25°C° 0 mm 4 mps 756 mmHg 56%
13:00 +25°C° 0 mm 4 mps 757 mmHg 54%
14:00 +25°C° 0 mm 4 mps 757 mmHg 56%
15:00 +23°C° 0 mm 4 mps 757 mmHg 58%
16:00 +22°C° 0 mm 4 mps 757 mmHg 60%
17:00 +21°C° 0 mm 3 mps 757 mmHg 64%
18:00 +20°C° 0 mm 3 mps 758 mmHg 68%
19:00 +19°C° 0 mm 2 mps 758 mmHg 73%
20:00 +18°C° 0 mm 2 mps 758 mmHg 77%
21:00 +17°C° 0 mm 2 mps 758 mmHg 82%
22:00 +15°C° 0 mm 2 mps 758 mmHg 86%
23:00 +15°C° 0 mm 2 mps 758 mmHg 86%

23 June, Wednesday

Time Temperature Precipitation Wind Pressure Humidity
00:00 +15°C° 0 mm 2 mps 758 mmHg 86%
01:00 +15°C° 0 mm 2 mps 759 mmHg 86%
02:00 +15°C° 0 mm 2 mps 759 mmHg 87%
03:00 +15°C° 0 mm 2 mps 759 mmHg 88%
04:00 +14°C° 0 mm 3 mps 759 mmHg 89%
05:00 +17°C° 0 mm 3 mps 759 mmHg 82%
06:00 +19°C° 0 mm 3 mps 759 mmHg 76%
07:00 +21°C° 0 mm 3 mps 759 mmHg 69%
08:00 +22°C° 0 mm 4 mps 759 mmHg 66%
09:00 +23°C° 0 mm 4 mps 759 mmHg 62%
10:00 +25°C° 0 mm 4 mps 759 mmHg 58%
11:00 +23°C° 0 mm 5 mps 759 mmHg 58%
12:00 +23°C° 0 mm 5 mps 759 mmHg 57%
13:00 +23°C° 0 mm 5 mps 759 mmHg 57%
14:00 +21°C° 0.3 mm 5 mps 760 mmHg 68%
15:00 +19°C° 0.3 mm 5 mps 760 mmHg 80%
16:00 +17°C° 0.3 mm 4 mps 760 mmHg 91%
17:00 +15°C° 0.3 mm 5 mps 760 mmHg 93%
18:00 +15°C° 0.3 mm 5 mps 760 mmHg 94%
19:00 +15°C° 0.3 mm 6 mps 760 mmHg 96%
20:00 +15°C° 0.4 mm 6 mps 760 mmHg 96%
21:00 +15°C° 0.4 mm 5 mps 760 mmHg 96%
22:00 +15°C° 0.4 mm 5 mps 760 mmHg 96%
23:00 +14°C° 0 mm 5 mps 760 mmHg 96%

24 June, Thursday

Time Temperature Precipitation Wind Pressure Humidity
00:00 +14°C° 0 mm 4 mps 760 mmHg 97%
01:00 +14°C° 0 mm 4 mps 760 mmHg 97%
02:00 +14°C° 0 mm 3 mps 760 mmHg 97%
03:00 +14°C° 0 mm 3 mps 760 mmHg 97%
04:00 +13°C° 0 mm 3 mps 760 mmHg 97%
05:00 +16°C° 0 mm 3 mps 760 mmHg 90%
06:00 +17°C° 0 mm 3 mps 760 mmHg 84%
07:00 +18°C° 0 mm 3 mps 760 mmHg 78%
08:00 +20°C° 0 mm 3 mps 760 mmHg 71%
09:00 +21°C° 0 mm 3 mps 760 mmHg 63%
10:00 +22°C° 0 mm 3 mps 761 mmHg 56%
11:00 +24°C° 0 mm 3 mps 760 mmHg 56%
12:00 +23°C° 0 mm 4 mps 760 mmHg 56%
13:00 +23°C° 0 mm 4 mps 760 mmHg 55%
14:00 +22°C° 0 mm 4 mps 760 mmHg 60%
15:00 +21°C° 0 mm 4 mps 760 mmHg 65%
16:00 +20°C° 0 mm 4 mps 760 mmHg 69%
17:00 +19°C° 0 mm 4 mps 760 mmHg 73%
18:00 +18°C° 0 mm 3 mps 759 mmHg 77%
19:00 +18°C° 0 mm 3 mps 759 mmHg 81%
20:00 +17°C° 0 mm 3 mps 759 mmHg 86%
21:00 +16°C° 0 mm 2 mps 759 mmHg 91%
22:00 +15°C° 0 mm 2 mps 759 mmHg 96%
23:00 +15°C° 0 mm 2 mps 759 mmHg 96%
Show more

We Need Your Consent

Meteoprog and our Service Providers may store and access personal data such as cookies, device identifiers or other similar technologies on your device and process such data to personalise content and ads, as well as provide social media features and to analyse the traffic.

  • Store and/or access information on your device

    Cookies, device identifiers or other information can be stored or accessed on your device for the purposes indicated above.

  • Personalised ads and content, ad and content measurement, audience insights, and products development

    Ads and content can be personalised based on a profile. More data can be added to better personalise ads and content. Ad and content performance can be measured. Insights about the audience who saw the ads and content can be derived. Such data can be used to develop or improve user’s experience, systems and software.

By clicking ‘I Agree’ you will allow the use of indicated cookies, device identifiers, web beacons or other similar technologies. Your settings can be changed in the browser on your device.

For certain purposes, legitimate interests may be relied on, rather than consent. You can read more about this in our Privacy and Cookie Policy.